Flag for Kazakhstan Weather past 2 weeks in Aqtobe, Kazakhstan

Now
64 °F

Clear.


Feels Like: 64 °F
Forecast: 65 / 87 °F
Wind: 1 mph from North

Location: Aktjubinsk

Current Time: May 29, 2015 at 1:52:38 AM

Latest Report: May 29, 2015 at 1:30 AM


Visibility: 10 mi

Pressure: 30.01 "Hg

Humidity: 68%

Dew point: 54 °F

Location of AqtobeLocation

Historic Weather in Aqtobe — Graph

°F

Aqtobe temperature yesterday

Maximum temperature yesterday: 84 °F (at 1:30 PM)
Minimum temperature yesterday: 54 °F (at 4:30 AM)
Average temperature yesterday: 72 °F

Past Weeks' High & Low Weather Summary

 TemperatureHumidityPressure
High84 °F (May 25, 3:00 PM)100% (May 14, 12:00 AM)30.15 "Hg (May 14, 12:00 AM)
Low37 °F (May 23, 4:30 AM)19% (May 26, 2:00 PM)29.59 "Hg (May 17, 4:30 AM)
Average60 °F69%29.89 "Hg
* Reported Midnight between May 13 and May 14 — May 29 12:30 AM, Aqtobe, Weather by CustomWeather, © 2015

Note: Actual official high and low records may vary slightly from our data, if they occured in-between our weather recording intervals... More about our weather records

Advertising

Aqtobe weather history for previous 24 hours

 ConditionsComfort  
Time TempWeatherWind HumidityBarometerVisibility
12:30 AM
Fri, May 29
64 °FClear.3 mph68%30.01 "Hg10 mi
12:00 AM66 °FClear.6 mph64%30.01 "Hg10 mi
11:30 PM
Thu, May 28
68 °FClear.3 mph60%30.01 "Hg10 mi
11:00 PM70 °FClear.6 mph57%30.01 "Hg10 mi
10:30 PM72 °FClear.10 mph53%29.98 "Hg6 mi
10:00 PM72 °FClear.6 mph53%29.98 "Hg5 mi
9:30 PM73 °FClear.8 mph50%29.98 "Hg10 mi
9:00 PM77 °FSunny.6 mph47%29.98 "Hg10 mi
8:30 PM79 °FSunny.3 mph39%29.98 "Hg10 mi
8:00 PM81 °FSunny.6 mph30%29.98 "Hg10 mi
7:30 PM81 °FSunny.6 mph32%29.98 "Hg10 mi
7:00 PM82 °FPartly sunny.8 mph26%29.98 "HgN/A
6:30 PM82 °FPartly sunny.8 mph28%29.98 "HgN/A
6:00 PM84 °FPartly sunny.8 mph25%29.98 "HgN/A
5:30 PM84 °FPartly sunny.8 mph23%30.01 "HgN/A
5:00 PM84 °FPartly sunny.8 mph23%30.01 "HgN/A
4:30 PM84 °FBroken clouds.10 mph27%30.01 "HgN/A
4:00 PM84 °FBroken clouds.10 mph23%30.01 "HgN/A
3:30 PM84 °FBroken clouds.10 mph23%30.01 "HgN/A
3:00 PM84 °FBroken clouds.10 mph25%30.01 "HgN/A
2:30 PM84 °FBroken clouds.10 mph23%30.04 "HgN/A
2:00 PM84 °FBroken clouds.10 mph27%30.04 "HgN/A
1:30 PM84 °FBroken clouds.8 mph29%30.04 "HgN/A
1:00 PM82 °FBroken clouds.8 mph28%30.04 "HgN/A
12:30 PM82 °FPassing clouds.6 mph32%30.04 "HgN/A
12:00 PM82 °FPassing clouds.6 mph35%30.04 "HgN/A
11:30 AM81 °FPassing clouds.6 mph34%30.04 "HgN/A
11:00 AM79 °FClear.3 mph48%30.04 "Hg6 mi
10:30 AM77 °FClear.1 mph51%30.07 "Hg6 mi
10:00 AM73 °FClear.1 mph57%30.07 "HgN/A
9:30 AM72 °FClear.1 mph57%30.07 "Hg5 mi
9:00 AM68 °FSunny.3 mph64%30.07 "Hg10 mi
8:30 AM66 °FPassing clouds.3 mph68%30.07 "HgN/A
8:00 AM64 °FSunny.3 mph73%30.07 "Hg10 mi
7:30 AM63 °FSunny.6 mph73%30.07 "Hg10 mi
7:00 AM61 °FSunny.3 mph77%30.07 "Hg10 mi
6:30 AM61 °FSunny.6 mph77%30.07 "Hg10 mi
6:00 AM59 °FSunny.3 mph82%30.07 "Hg10 mi
5:30 AM57 °FClear.6 mph88%30.07 "Hg6 mi
5:00 AM55 °FClear.1 mph94%30.07 "Hg10 mi
4:30 AM54 °FClear.1 mph94%30.07 "Hg5 mi
4:00 AM57 °FClear.3 mph88%30.07 "Hg10 mi
3:30 AM55 °FClear.1 mph94%30.07 "Hg10 mi
3:00 AM57 °FClear.No wind88%30.07 "Hg10 mi
2:30 AM57 °FClear.1 mph88%30.07 "Hg10 mi
2:00 AM61 °FClear.3 mph83%30.07 "Hg10 mi
1:30 AM61 °FClear.No wind88%30.07 "Hg10 mi
1:00 AM59 °FClear.No wind88%30.07 "Hg10 mi
Weather by CustomWeather, © 2015

See weather overviewHow to use our weather pages